Home   Weather   Quito   Past weeks
Flag for Ecuador

Past Weather in Quito, Ecuador — Yesterday and Last 2 Weeks

Now
50 °F

Passing clouds.


Feels Like: 45 °F
Forecast: 69 / 50 °F
Wind: 15 mph from South

Location: Latacunga Airport

Current Time: Oct 16, 2019 at 8:01:52 pm

Latest Report: Oct 16, 2019 at 7:00 pm


Visibility: N/A

Pressure: 30.39 "Hg (21.61 "Hg at 2826m altitude)

Humidity: 88%

Dew Point: 46 °F

Location of QuitoLocation

Past Weather in Quito — Graph

°F

Quito Temperature Yesterday

Maximum temperature yesterday: 61 °F (at 3:00 pm)
Minimum temperature yesterday: 43 °F (at 1:00 am)
Average temperature yesterday: 51 °F

High & Low Weather Summary for the Past Weeks

 TemperatureHumidityPressure
High68 °F (Oct 5, 2:00 pm)100% (Oct 4, 12:00 am)30.48 "Hg (Oct 4, 12:00 am)
Low32 °F (Oct 9, 4:00 am)40% (Oct 5, 2:00 pm)30.24 "Hg (Oct 2, 3:00 pm)
Average51 °F79%30.38 "Hg
* Reported Oct 1 7:00 pm — Oct 16 7:00 pm, Quito. Weather by CustomWeather, © 2019

Note: Actual official high and low records may vary slightly from our data, if they occured in-between our weather recording intervals... More about our weather records

Advertising

Quito Weather History for the Previous 24 Hours

Scroll right to see more
 ConditionsComfort  
Time TempWeatherWind HumidityBarometerVisibility
7:00 pm
Wed, Oct 16
50 °FPassing clouds.15 mph88%30.39 "HgN/A
6:00 pm54 °FBroken clouds.13 mph77%30.36 "HgN/A
5:00 pm57 °FScattered clouds.16 mph67%30.33 "HgN/A
4:00 pm59 °FPartly sunny.17 mph59%30.33 "HgN/A
3:00 pm57 °FPartly sunny.18 mph67%30.33 "HgN/A
2:00 pm61 °FScattered showers. Broken clouds.25 mph59%30.36 "HgN/A
1:00 pm63 °FBroken clouds.20 mph59%30.39 "HgN/A
12:00 pm59 °FBroken clouds.16 mph63%30.42 "HgN/A
11:00 am57 °FPartly sunny.13 mph63%30.45 "HgN/A
10:00 am54 °FPartly sunny.10 mph72%30.45 "HgN/A
9:00 am54 °FBroken clouds.6 mph67%30.45 "HgN/A
8:00 am52 °FScattered clouds.2 mph72%30.45 "HgN/A
7:00 am46 °FScattered clouds.2 mph87%30.45 "HgN/A
6:00 am45 °FPartly sunny.2 mph93%30.42 "HgN/A
5:00 am43 °FPartly cloudy.1 mph93%30.39 "HgN/A
4:00 am45 °FPartly cloudy.1 mph93%30.39 "HgN/A
3:00 am41 °FPassing clouds.1 mph93%30.39 "HgN/A
2:00 am41 °FPassing clouds.1 mph93%30.42 "HgN/A
1:00 am41 °FPassing clouds.1 mph93%30.42 "HgN/A
12:00 am41 °FPassing clouds.7 mph93%30.45 "HgN/A
11:00 pm
Tue, Oct 15
43 °FPassing clouds.2 mph87%30.45 "HgN/A
10:00 pm46 °FPassing clouds.5 mph87%30.45 "HgN/A
9:00 pm48 °FPassing clouds.6 mph82%30.42 "HgN/A
8:00 pm50 °FPassing clouds.10 mph82%30.39 "HgN/A
Weather by CustomWeather, © 2019

See weather overview